Location: Catstown
(52.4386°N, 7.2633°W)
Time: 22:54:12
(UTC+00:00)

SL-08 RB Rocket - Pass Details

Date: 18 September 2020
Orbit: 646 x 685 km, 97.8° (Epoch: 21 October)

Event Time Altitude Azimuth Distance (km) Brightness Sun altitude
Rises 19:33:08 0° 155° (SSE) 3,018 6.7 -9.4°
Reaches altitude 10° 19:35:23 10° 153° (SSE) 2,102 5.9 -9.8°
Maximum altitude 19:39:56 66° 72° (ENE) 732 3.7 -10.4°
Drops below altitude 10° 19:44:28 10° 351° (N) 2,094 6.6 -11.1°
Sets 19:46:42 0° 348° (NNW) 3,005 7.5 -11.4°
